This demonstration page uses our WeatherBlox Daily Observations layout. Learn more.

Left ArrowRight Arrow

34.02893, -84.19858

Hourly Observations for December 30, 2018

Temp ( °F °C ) Dew Point ( °F °C ) Humidity (%) Winds ( mph kmh ) Pressure ( in mb ) Visibility ( mi km ) Precip ( " mm )
12:53 am 00:53 Cloudy 50 10 47 8.3 89 89 S 3 6 30.19 1023 8 13 0.00 0.03
1:45 am 01:45 Cloudy with Light Rain 49 9.4 48 8.9 97 97 WSW 6 9 30.24 1024 2 3 0.07 1.78
1:53 am 01:53 Cloudy with Light Rain 49 9.4 48 8.9 97 97 WNW 5 7 30.21 1023 3 5 0.07 1.78
2:53 am 02:53 Cloudy with Light Rain 49 9.4 48 8.9 97 97 NNE 3 6 30.17 1022 2 3 0.04 1.02
3:08 am 03:08 Cloudy with Light Rain 49 9.4 48 8.9 97 97 N 6 9 30.21 1023 3 5 0.01 0.25
3:37 am 03:37 Cloudy with Light Rain 49 9.4 48 8.9 97 97 VRB 5 7 30.18 1022 3 4 0.02 0.51
3:46 am 03:46 Cloudy with Light Rain 49 9.4 48 8.9 97 97 ENE 3 6 30.18 1022 4 6 0.02 0.51
3:53 am 03:53 Cloudy with Light Rain 49 9.4 48 8.9 97 97 NNE 5 7 30.15 1021 4 6 0.02 0.51
4:00 am 04:00 Cloudy with Light Rain 49 9.4 48 8.9 97 97 NNE 5 7 30.18 1022 4 6 0.00 0.03
4:39 am 04:39 Cloudy with Nearby Thunderstorms 49 9.4 48 8.9 97 97 Calm 30.12 1020 2 3 0.04 1.02
4:41 am 04:41 Cloudy with Nearby Thunderstorms 49 9.4 48 8.9 97 97 Calm 30.18 1022 2 3 0.06 1.52
4:53 am 04:53 Cloudy with Nearby Thunderstorms 49 9.4 48 8.9 97 97 NW 5 7 30.16 1021 2 3 0.11 2.79
4:59 am 04:59 Cloudy with Strong Thunderstorms 49 9.4 48 8.9 97 97 NNE 3 6 30.18 1022 2 2 0.03 0.76
5:10 am 05:10 Cloudy with Thunderstorms 48 8.9 48 8.9 100 100 VRB 5 7 30.15 1021 2 3 0.07 1.78
5:15 am 05:15 Cloudy with Light Rain 48 8.9 48 8.9 100 100 Calm 30.15 1021 3 5 0.08 2.03
5:40 am 05:40 Cloudy with Light Rain 49 9.4 48 8.9 97 97 Calm 30.18 1022 3 4 0.12 3.05
5:49 am 05:49 Cloudy with Light Rain 48 9 48 9 100 100 E 5 7 30.18 1022 4 6 0.13 3.30
5:53 am 05:53 Cloudy with Light Rain 49 9.4 48 8.9 97 97 SE 3 6 30.15 1021 4 6 0.13 3.30
6:26 am 06:26 Cloudy with Light Rain 49 9.4 48 8.9 97 97 Calm 30.18 1022 3 4 0.01 0.25
6:53 am 06:53 Cloudy with Light Rain 49 9.4 48 8.9 97 97 NNE 3 6 30.17 1022 2 3 0.02 0.51
7:53 am 07:53 Cloudy with Light Rain 49 9.4 49 9.4 100 100 Calm 30.19 1022 2 2 0.08 2.03
8:14 am 08:14 Cloudy with Mist and Fog 49 9.4 48 8.9 97 97 ESE 3 6 30.21 1023 1 2 0.00 0.03
8:33 am 08:33 Cloudy with Mist and Fog 49 9.4 49 9.4 100 100 Calm 30.21 1023 1 1 0.00 0.03
8:40 am 08:40 Cloudy with Mist and Fog 49 9.4 49 9.4 100 100 Calm 30.21 1023 1 2 0.00 0.03
8:53 am 08:53 Cloudy with Mist and Fog 49 9.4 49 9.4 100 100 Calm 30.19 1022 1 2 0.00 0.03
9:13 am 09:13 Cloudy with Mist and Fog 49 9.4 49 9.4 100 100 Calm 30.24 1024 1 2 0.01 0.25
9:37 am 09:37 Cloudy with Mist and Fog 50 10 49 9.4 96 96 Calm 30.24 1024 1 1 0.01 0.25
9:53 am 09:53 Cloudy with Mist and Fog 50 10 49 9.4 96 96 Calm 30.23 1024 1 1 0.01 0.25
10:22 am 10:22 Cloudy with Mist and Fog 50 10 50 10 100 100 Calm 30.24 1024 1 2 0.00 0.00
10:53 am 10:53 Cloudy with Mist and Fog 51 10.6 50 10 96 96 Calm 30.21 1023 2 2 0.00 0.00
11:41 am 11:41 Cloudy with Mist and Fog 51 10.6 50 10 96 96 Calm 30.18 1022 3 4 0.00 0.00
11:53 am 11:53 Cloudy with Mist and Fog 51 10.6 50 10 96 96 Calm 30.19 1022 3 4 0.00 0.00
12:08 pm 12:08 Cloudy with Mist and Fog 52 11.1 51 10.6 97 97 Calm 30.18 1022 2 2 0.00 0.00
12:53 pm 12:53 Cloudy with Mist and Fog 52 11.1 51 10.6 97 97 Calm 30.16 1021 2 3 0.00 0.00
1:11 pm 13:11 Cloudy with Mist and Fog 52 11.1 52 11.1 100 100 Calm 30.15 1021 2 2 0.00 0.00
1:53 pm 13:53 Cloudy with Mist and Fog 52 11.1 52 11.1 100 100 Calm 30.14 1021 2 3 0.00 0.00
2:01 pm 14:01 Cloudy with Mist and Fog 52 11.1 52 11.1 100 100 Calm 30.15 1021 2 3 0.00 0.00
2:53 pm 14:53 Cloudy with Mist and Fog 52 11.1 52 11.1 100 100 VRB 3 6 30.14 1021 2 2 0.00 0.00
3:32 pm 15:32 Cloudy with Light Rain 52 11.1 52 11.1 100 100 Calm 30.15 1021 1 2 0.00 0.03
3:53 pm 15:53 Cloudy with Mist and Fog 52 11.1 52 11.1 100 100 Calm 30.15 1021 1 2 0.00 0.03
4:53 pm 16:53 Cloudy with Mist and Fog 53 11.7 52 11.1 96 96 Calm 30.16 1021 2 3 0.00 0.03
5:10 pm 17:10 Cloudy with Mist and Fog 53 11.7 52 11.1 96 96 VRB 3 6 30.15 1021 2 3 0.00 0.00
5:21 pm 17:21 Cloudy with Mist and Fog 53 11.7 52 11.1 96 96 ENE 3 6 30.15 1021 3 4 0.00 0.00
5:45 pm 17:45 Cloudy with Mist and Fog 53 11.7 52 11.1 96 96 Calm 30.15 1021 4 6 0.00 0.00
5:53 pm 17:53 Cloudy with Mist and Fog 53 11.7 52 11.1 96 96 ESE 3 6 30.16 1021 3 5 0.00 0.00
6:24 pm 18:24 Cloudy with Mist and Fog 53 11.7 52 11.1 96 96 ESE 3 6 30.15 1021 3 4 0.00 0.00
6:53 pm 18:53 Cloudy with Mist and Fog 53 11.7 52 11.1 96 96 Calm 30.18 1022 2 3 0.00 0.00
7:53 pm 19:53 Cloudy with Mist and Fog 53 11.7 52 11.1 96 96 Calm 30.18 1022 2 3 0.00 0.00
7:57 pm 19:57 Cloudy with Mist and Fog 53 11.7 52 11.1 96 96 ESE 3 6 30.18 1022 3 4 0.00 0.00
8:20 pm 20:20 Cloudy with Mist and Fog 53 11.7 52 11.1 96 96 Calm 30.18 1022 3 5 0.00 0.00
8:53 pm 20:53 Cloudy with Mist and Fog 53 11.7 52 11.1 96 96 Calm 30.18 1022 3 5 0.00 0.03
9:08 pm 21:08 Cloudy with Mist and Fog 53 11.7 52 11.1 96 96 SE 5 7 30.18 1022 3 4 0.00 0.00
9:31 pm 21:31 Cloudy with Mist and Fog 53 11.7 52 11.1 96 96 E 3 6 30.15 1021 2 3 0.00 0.00
9:40 pm 21:40 Cloudy with Mist and Fog 52 11.1 52 11.1 100 100 VRB 3 6 30.15 1021 2 3 0.01 0.25
9:53 pm 21:53 Cloudy with Mist and Fog 52 11.1 52 11.1 100 100 VRB 3 6 30.17 1022 2 2 0.01 0.25
10:23 pm 22:23 Cloudy with Mist and Fog 53 11.7 52 11.1 96 96 Calm 30.18 1022 2 3 0.02 0.51
10:32 pm 22:32 Cloudy with Mist and Fog 52 11.1 52 11.1 100 100 ESE 3 6 30.15 1021 2 2 0.02 0.51
10:51 pm 22:51 Cloudy with Light Rain 54 12 52 11 94 94 Calm 30.15 1021 3 4 0.02 0.51
10:53 pm 22:53 Cloudy with Light Rain 53 11.7 52 11.1 96 96 Calm 30.16 1021 3 4 0.02 0.51
11:28 pm 23:28 Cloudy with Mist and Fog 53 11.7 53 11.7 100 100 Calm 30.15 1021 2 2 0.00 0.03
11:53 pm 23:53 Cloudy with Light Rain 53 11.7 53 11.7 100 100 VRB 3 6 30.15 1021 1 2 0.01 0.25

Powered by AerisWeather